Погода в Георгиевске

Погода в Георгиевске : погода сейчас, прогноз погоды и архив. Всё, что Вы хотите узнать о погоде в Георгиевске!

Поиск расширенной информации на нашем сайте:

Другие новости

Новости СМИ2

Главная страница сайта

Новости сайта

02.10.2013

Напоминаем, что на нашем новом сайте вы можете получить высокодетализированные прогнозы погоды по пунктам России, СНГ и мира (включающие важные для авиации метеовеличины, такие как направление и скорость ветра, видимость, явления погоды, количество и форма облачности, нижняя и верхняя граница облачности), а также ознакомиться с разнообразными материалами по авиационной метеорологии и подборкой полезных ссылок на эту тему.

Сайт Метеоцентр.Азия посвящён разработке технологий оптимизации авиаметеорологического обслуживания, включая проектирование и перспективное создание нескольких автоматизированных авиаметеорологических систем:
- система выпуска высокодетальных прогностических карт явлений погоды для нижнего воздушного пространства по России и ближнему зарубежью;
- система верификации прогнозов TAF (выпускаемых синоптиками официальных АМСГ РФ и ближнего зарубежья) и AUTOTAF (выпускаемых сайтом Метеоцентр.Азия) - выявление ошибок, онлайн-сопоставление с фактической погодой METAR, автоматическое внесение коррективов в прогнозы при резком отклонении фактической погоды от прогноза, подсчёт оправдываемости прогнозов по элементам и в целом;
- система обработки, анализа и отображения авиаметеорологической информации для применения провайдерами метеорологической информации.

Рекомендуем: Купить камаз самосвал по выгодной цене.

Погода в Георгиевске - сегодня

Время (UTC), дата Ветер
(°,м/с) 
Видим.   Явления Облачность Т
(°С)
Тd
(°С)
f(%) Тe
(°С)
Pmin
(гПа)
dP
(гПа)
Po
(мм)
O2
(г/м3)
Тmin Tmax R s Состояние
почвы
06 17.02.17 280 (З) 20000 м    ясно 
-6.7 -11.4 69 -8  1031.6  1.2  746  309  -9.3         
09 17.02.17 300 (СЗ) 20000 м    3/0 средняя 
[Ac trans]
-3.5 -11.7 53 -3  1030.6  -0.5  745  305           
12 17.02.17 270 (З) 20000 м    1/0 средняя 
[Ac trans]
-2 -11.1 50 -1  1028.9  -1.5  744  303           
15 17.02.17 030 (СВ) 20000 м    ясно 
-5.1 -10.3 67 -5  1030.1  0.8  745  307    -1.6       
18 17.02.17 тихо ()   20000 м    ясно 
-7.9 -10.8 80 -8  1030.6  0.1  745  310           
21 17.02.17 200 (Ю) 20000 м    ясно 
-8.4 -11.1 81 -8  1030.3  -0.4  745  311           
00 18.02.17 тихо ()   20000 м    ясно 
-9.9 -12 85 -10  1029.7  -0.7  744  312           
03 18.02.17 270 (З) 20000 м    ясно 
-8.3 -12.2 73 -8  1029.5  744  310  -10.3         
06 18.02.17 210 (ЮЗ) 20000 м    4/0 верхняя 
[Cc]
-2.9 -10.2 57 -2  1029.1  0.3  744  304           
09 18.02.17 110 (В) 20000 м    ясно 
+2.6 -8.1 45 +2  1026.9  -1.3  743  297           
12 18.02.17 080 (В) 20000 м    8/0 верхняя 
[Ci]
+3.5 -6.8 47 +3  1025.6  -1.2  742  296           
15 18.02.17 080 (В) 20000 м    10/10 1000 м 
[Sc]
+0.7 -6 61 +1  1026.2  0.3  743  299    +3.9       
18 18.02.17 тихо ()   20000 м    3/0 средняя 
[Ac trans]
-1.3 -5.2 75 -1  1026.4  0.1  743  301           
21 18.02.17 тихо ()   20000 м    3/0 средняя 
[Ac trans]
-1.4 -5.2 75 -1  1026.5  -0.1  743  301           
00 19.02.17 тихо ()   20000 м    ясно 
-4.3 -6.4 85 -4  1028.2  -0.1  744  305           
03 19.02.17 тихо ()   4000 м  дымка  4/0 средняя, верхняя 
[Ac trans|Cc]
-5.8 -7.3 89 -6  1029.1  0.7  744  307  -5.9         
06 19.02.17 200 (Ю) 20000 м    4/0 верхняя 
[Ci]
-1 -6.4 67 1029.4  0.9  745  302  -6.2         
09 19.02.17 120 (ЮВ) 20000 м    ясно 
+6.7 -6.1 40 +8  1028.4  0.1  745  294           
12 19.02.17 160 (Ю) 20000 м    4/0 верхняя 
[Ci]
+9.3 -7.4 30 +10  1027.7  -0.3  745  291           
15 19.02.17 тихо ()   20000 м    8/0 верхняя 
[Ci]
+3.3 -3.6 61 +3  1029.1  0.6  745  297    +9.3       
18 19.02.17 тихо ()   20000 м    ясно 
-1 -3.8 81 -1  1029.9  0.2  745  302           
21 19.02.17 тихо ()   20000 м    ясно 
-2.7 -4.6 87 -3  1029  -1.1  744  303           
00 20.02.17 тихо ()   4000 м  дымка  ясно 
-4 -5.5 89 -4  1027.8  -1.3  743  305           
03 20.02.17 тихо ()   4000 м  дымка  ясно 
-3.3 -5.9 82 -3  1026.8  -0.9  743  304  -4.5         
06 20.02.17 тихо ()   20000 м    ясно 
+1 -4.5 67 +1  1026.3  0.1  743  299  -4.5         
Время (UTC), дата Ветер
(°,м/с) 
Видим.   Явления Облачность Т
(°С)
Тd
(°С)
f(%) Тe
(°С)
Pmin
(гПа)
dP
(гПа)
Po
(мм)
O2
(г/м3)
Тmin Tmax R s Состояние
почвы

Для получения пояснительной информации подведите курсор к названию столбца.

ПОГОДА в Георгиевске - архив

Всё, что Вы хотите узнать о погоде в Георгиевске - удобно и подробно!

Выберите нужную дату (начиная с 1 января 2015* года) и нажмите кнопку "Найти".
Будут отображены архивные сводки погоды по пункту Георгиевск, начиная с указанной даты.


Отображать данные в формате CSV (для использования в таблицах Excel)


Внимание! Наш архив погоды предназначен исключительно для личного некоммерческого использования в познавательных целях. Если Вам необходимы официальные справки о состоянии погоды (для производственных, юридических, коммерческих и т.п. целей), обращайтесь в органы Росгидромета.

*Примечание: данная дата относится к архиву по метеостанциям СССР (Россия, СНГ, Балтия).
Архив по метеостанциям Зарубежной Европы и Азии (кроме Китая) хранится 10 дней, по другим регионам земного шара (Китай, Африка, Америка, Австралия, Океания) - 1 день.

Георгиевск - район местоположения метеостанции


Название, широта, долгота, высота метеостанции:
Георгиевск 44.2°ш. 43.5°д. 302 м над ур. моря [Российская Федерация]

Дополнительная информация

В oтличие oт бoльшинства пoгoдных сайтoв мы публикуем пoдрoбную метеoинфoрмацию в детальнoм прoфессиoнальнoм фoрмате.

Характеристики температуры и влажнoсти вoздуха измеряются на высoте 2 м в тени вдали oт зданий и деревьев.
Скoрoсть ветра измеряется на высoте 10 м (на урoвне рoста челoвека скoрoсть ветра ниже в 1.5-2 раза). Если метеoстанция нахoдится в гoрoде или в лесу, тo скoрoсть ветра занижена на 2-4 м/с пo сравнению с oткрытым местoм. Скoрoсть ветра над акватoриями крупных рек и oзёр, а также на вершинах хoлмoв на 2-5 м/с выше, чем в oбычных услoвиях.
Атмoсфернoе давление в разных тoчках местнoсти мoжет значительнo oтличаться oт давления на метеoстанции, в зависимoсти oт услoвий рельефа (при пoдъёме на 10 м давление пoнижается примернo на 1 мм рт.ст.).